Kaneohe MCBH, HI

2:09 PM HST on October 20, 2017 (GMT -1000)
Kaneohe Bay Marine Corps Air Facility

Weather History for PHNG - March, 2014

Change the Weather History Date:

Tuesday, March 25, 2014

  Actual Average Record
Temperature  
Mean Temperature 75 °F -  
Max Temperature 81 °F 75 °F 82 °F (2003)
Min Temperature 69 °F 68 °F 66 °F (1998)
Cooling Degree Days 10    
Growing Degree Days 25 (Base 50)    
Moisture  
Dew Point 65 °F    
Average Humidity 70    
Maximum Humidity 79    
Minimum Humidity 58    
Precipitation  
Precipitation 0.00 in - - ()
Sea Level Pressure  
Sea Level Pressure 30.12 in    
Wind  
Wind Speed 8 mph (ENE)    
Max Wind Speed 13 mph    
Max Gust Speed 20 mph    
Visibility 6 miles    
Events Rain    
Averages and records for this station are not official NWS values.
T = Trace of Precipitation, MM = Missing Value Source: NWS Daily Summary

Daily Weather History Graph

Daily Weather History Graph

Search for Another Location

Airport or City:

Trip Planner

Search our weather history database for the weather conditions in past years. The results will help you decide how hot, cold, wet, or windy it might be!

Date:

Astronomy

Mar. 25, 2014 Rise Set
Actual Time 6:30 AM HST 6:43 PM HST
Civil Twilight 6:08 AM HST 7:06 PM HST
Nautical Twilight 5:42 AM HST 7:32 PM HST
Astronomical Twilight 5:16 AM HST 7:58 PM HST
Moon 2:25 AM HST (3/25) 2:00 PM HST (3/25)
Length of Visible Light 12h 58m
Length of Day
12h 13m
Waning Crescent, 29% of the Moon is Illuminated
Mar 25
Waning Crescent
Mar 30
New
Apr 6
First Quarter
Apr 14
Full
Apr 21
Last Quarter

Hourly Weather History & Observations

Time (HST) Temp. Heat Index Dew Point Humidity Pressure Visibility Wind Dir Wind Speed Gust Speed Precip Events Conditions
12:57 AM 72.7 °F - 60.1 °F 64% 30.15 in 7.0 mi NE 10.4 mph - N/A   Overcast
1:57 AM - - - N/A% 30.14 in 6.0 mi ENE 5.8 mph - N/A   Haze
2:04 AM - - - N/A% 30.15 in 6.0 mi ENE 8.1 mph - N/A   Haze
2:57 AM 69.8 °F - 62.1 °F 76% 30.12 in 7.0 mi NE 4.6 mph - N/A   Partly Cloudy
3:57 AM 69.8 °F - 61.0 °F 73% 30.10 in 7.0 mi ENE 6.9 mph - N/A   Scattered Clouds
4:57 AM 69.8 °F - 63.0 °F 79% 30.10 in 7.0 mi NE 9.2 mph - 0.00 in   Overcast
5:57 AM 71.6 °F - 64.0 °F 77% 30.12 in 7.0 mi NE 6.9 mph - 0.00 in   Overcast
6:19 AM 71.6 °F - 64.4 °F 78% 30.14 in 6.2 mi NE 6.9 mph - N/A   Mostly Cloudy
6:44 AM 71.6 °F - 64.4 °F 78% 30.14 in 6.2 mi ENE 6.9 mph - 0.00 in   Mostly Cloudy
6:57 AM 71.6 °F - 64.0 °F 77% 30.13 in 7.0 mi ENE 5.8 mph - 0.00 in   Mostly Cloudy
7:57 AM 73.4 °F - 64.9 °F 75% 30.14 in 7.0 mi East 5.8 mph - N/A   Partly Cloudy
8:29 AM 73.4 °F - 64.4 °F 73% 30.17 in 6.2 mi East 8.1 mph - N/A   Mostly Cloudy
8:57 AM 75.9 °F - 64.9 °F 69% 30.15 in 7.0 mi ENE 8.1 mph - N/A   Mostly Cloudy
9:16 AM 75.2 °F - 66.2 °F 73% 30.16 in 6.2 mi ENE 8.1 mph - N/A   Mostly Cloudy
9:57 AM 75.2 °F - 66.0 °F 73% 30.15 in 7.0 mi NE 9.2 mph - N/A   Mostly Cloudy
10:57 AM 78.8 °F - 64.9 °F 62% 30.14 in 7.0 mi ENE 8.1 mph - N/A   Overcast
11:57 AM 81.0 °F 82.7 °F 64.9 °F 58% 30.12 in 7.0 mi ENE 12.7 mph 19.6 mph N/A   Overcast
12:39 PM 80.6 °F 82.3 °F 64.4 °F 58% 30.11 in 6.2 mi ENE 10.4 mph 16.1 mph N/A   Mostly Cloudy
12:57 PM 80.4 °F 82.2 °F 64.9 °F 59% 30.09 in 7.0 mi ENE 10.4 mph 19.6 mph N/A   Mostly Cloudy
1:41 PM 80.6 °F 82.7 °F 66.2 °F 61% 30.10 in 6.2 mi ENE 11.5 mph - N/A   Mostly Cloudy
1:57 PM 80.4 °F 82.4 °F 66.0 °F 61% 30.08 in 7.0 mi ENE 12.7 mph 18.4 mph N/A   Scattered Clouds
2:57 PM 79.2 °F - 66.0 °F 64% 30.05 in 7.0 mi ENE 10.4 mph 18.4 mph N/A   Scattered Clouds
3:09 PM 78.8 °F - 64.4 °F 61% 30.06 in 6.2 mi ENE 9.2 mph 18.4 mph N/A   Mostly Cloudy
3:57 PM 78.4 °F - 64.9 °F 63% 30.05 in 7.0 mi ENE 12.7 mph 19.6 mph N/A   Partly Cloudy
4:57 PM 77.7 °F - 66.0 °F 67% 30.06 in 7.0 mi ENE 6.9 mph - N/A   Partly Cloudy
5:31 PM 77.0 °F - 66.2 °F 69% 30.08 in 6.2 mi ENE 9.2 mph 16.1 mph N/A   Mostly Cloudy
5:38 PM 77.0 °F - 66.2 °F 69% 30.08 in 6.2 mi ENE 8.1 mph - N/A   Mostly Cloudy
5:57 PM 77.0 °F - 66.0 °F 69% 30.07 in 7.0 mi East 6.9 mph - N/A   Partly Cloudy
6:57 PM 75.7 °F - 64.0 °F 67% 30.09 in 7.0 mi ENE 6.9 mph - N/A   Overcast
7:40 PM 73.4 °F - 64.4 °F 73% 30.12 in 6.2 mi East 8.1 mph - 0.00 in   Mostly Cloudy
7:49 PM 73.4 °F - 64.4 °F 73% 30.12 in 6.2 mi East 8.1 mph - 0.00 in   Mostly Cloudy
7:57 PM 73.9 °F - 64.0 °F 71% 30.10 in 7.0 mi East 9.2 mph 18.4 mph 0.00 in   Mostly Cloudy
8:57 PM 73.9 °F - 64.0 °F 71% 30.12 in 7.0 mi East 6.9 mph - N/A   Overcast
9:57 PM 73.4 °F - 64.9 °F 75% 30.14 in 7.0 mi East 5.8 mph - N/A   Overcast
10:37 PM - - - N/A% 30.15 in 5.0 mi East 9.2 mph 19.6 mph 0.00 in Rain Light Rain
10:45 PM - - - N/A% 30.15 in 2.0 mi ENE 6.9 mph - 0.00 in Rain Light Rain
10:52 PM 71.6 °F - 64.0 °F 77% 30.14 in 6.0 mi East 5.8 mph - 0.00 in Rain Rain
11:24 PM 71.6 °F - 64.4 °F 78% 30.15 in 5.0 mi ENE 6.9 mph - 0.00 in Rain Light Rain
11:57 PM 71.6 °F - 64.9 °F 79% 30.13 in 5.0 mi Variable 4.6 mph - 0.00 in   Haze